Regional Weather Roundup
Issued by NWS

Home | Current Version | Previous Version | Graphics & Text | Print | Product List | Glossary On
Versions: 1 2 3 4 5 6 7 8 9 10 11 12 13 14 15 16 17 18 19 20 21 22 23 24 25 26 27 28 29 30 31 32 33 34 35 36 37 38 39 40 41 42 43 44 45 46 47 48 49 50
000
ASUS45 KCYS 171710
RWRWY

WYOMING REGIONAL WEATHER ROUNDUP
NATIONAL WEATHER SERVICE CHEYENNE WY
1100 AM MDT WED SEP 17 2014

NOTE:  "FAIR" INDICATES FEW OR NO CLOUDS BELOW 12,000 FEET
WITH NO SIGNIFICANT WEATHER AND/OR OBSTRUCTIONS TO VISIBILITY.

WYZ001-171800-
YELLOWSTONE NATIONAL PARK

CITY           SKY/WX    TMP DP  RH WIND       PRES   REMARKS
LK YELLOWSTONE   N/A     54  45  71 SE3       30.26S
W YELLOWSTONE  NOT AVBL

$$
WYZ002>013-054>058-071-098>099-171800-
NORTHERN WYOMING

CITY           SKY/WX    TMP DP  RH WIND       PRES   REMARKS
JACKSON        SUNNY     61  45  55 CALM      30.18F
CODY           SUNNY     72  43  35 S8        30.04F
GREYBULL       MOSUNNY   70  48  45 CALM      30.00S
WORLAND        MOSUNNY   69  49  48 NE3       30.01F
SHERIDAN       SUNNY     79  48  33 N7        29.97R
BUFFALO        LGT RAIN  76  42  29 SE14      30.03F
GILLETTE       PTSUNNY   78  43  28 VRB5      30.00R
HULETT         FAIR      77  41  27 MISG      30.00
NEWCASTLE      FAIR      72  37  28 S3        30.02

$$
WYZ014>020-022>026-101>103-171800-
CENTRAL WYOMING

CITY           SKY/WX    TMP DP  RH WIND       PRES   REMARKS
BIG PINEY      PTSUNNY   61  46  57 NE12      30.26R
PINEDALE       CLOUDY    55  45  67 SW7       30.27F
DUBOIS         FAIR      64  37  36 N10       30.19R
LANDER         LGT RAIN  65  46  50 SW9       30.13R
RIVERTON       LGT RAIN  65  44  46 W9        30.12R
CASPER         MOSUNNY   78  36  21 SW5       30.10R
DOUGLAS        SUNNY     75  40  28 NW5       30.06F

$$
WYZ021-027>030-104>119-171800-
SOUTHERN WYOMING

CITY           SKY/WX    TMP DP  RH WIND       PRES   REMARKS
EVANSTON       SUNNY     73  40  30 SW8       30.21S
KEMMERER       MOSUNNY   68  36  30 NE20      30.25F
FORT BRIDGER     N/A     65  44  46 NE17      30.27R
ROCK SPRINGS   PTSUNNY   67  36  31 N12       30.22R
DIXON          FAIR      70  43  38 W3        30.22S
RAWLINS        SUNNY     72  36  26 W5        30.19F
SARATOGA       FAIR      72  41  33 SE9       30.22F
LARAMIE        SUNNY     73  37  27 VRB3      30.22F
CHEYENNE       SUNNY     79  35  20 N7        30.14S
TORRINGTON     MOSUNNY   78  44  29 S7        29.99F
PINE BLUFFS    FAIR      79  36  21 N7        30.08S

$$


USA.gov is the U.S. government's official web portal to all federal, state and local government web resources and services.